| time (UTC) | temp C | wind direction | speed KPH | gust KPH | rain 1hr cm | rain 24hr cm | rain mn cm | humidity % | barometer mb |
| 20260906103437 | 18 | 285 | 0.0 | 0.0 | 0.00 | 0.00 | 0.00 | 99 | 1014.7 |
| 20260906102932 | 18 | 285 | 0.0 | 0.0 | 0.00 | 0.00 | 0.00 | 99 | 1014.8 |
| 20260906102427 | 18 | 285 | 0.0 | 0.0 | 0.00 | 0.00 | 0.00 | 99 | 1014.7 |
| 20260906101922 | 18 | 283 | 0.0 | 0.0 | 0.00 | 0.00 | 0.00 | 99 | 1014.8 |
| 20260906101417 | 18 | 282 | 0.0 | 0.0 | 0.00 | 0.00 | 0.00 | 99 | 1014.9 |
| 20260906100913 | 17 | 283 | 0.0 | 0.0 | 0.00 | 0.00 | 0.00 | 99 | 1014.9 |
| 20260906100412 | 17 | 305 | 0.0 | 0.0 | 0.00 | 0.00 | 0.00 | 99 | 1014.9 |
| 20260906095906 | 17 | 308 | 0.0 | 0.0 | 0.00 | 0.00 | 0.00 | 99 | 1014.8 |
| 20260906095402 | 17 | 308 | 0.0 | 0.0 | 0.00 | 0.00 | 0.00 | 99 | 1014.7 |
| 20260906094856 | 18 | 288 | 0.0 | 0.0 | 0.00 | 0.00 | 0.00 | 99 | 1014.8 |
| 20260906094351 | 18 | 288 | 0.0 | 0.0 | 0.00 | 0.00 | 0.00 | 99 | 1014.7 |
| 20260906093847 | 18 | 262 | 0.0 | 0.0 | 0.00 | 0.00 | 0.00 | 99 | 1014.6 |
| 20260906093343 | 18 | 151 | 0.0 | 0.0 | 0.00 | 0.00 | 0.00 | 99 | 1014.4 |
| 20260906092842 | 19 | 150 | 0.0 | 0.0 | 0.00 | 0.00 | 0.00 | 99 | 1014.4 |
| 20260906092337 | 19 | 169 | 0.0 | 0.0 | 0.00 | 0.00 | 0.00 | 99 | 1014.5 |
| 20260906091833 | 19 | 190 | 0.0 | 0.0 | 0.00 | 0.00 | 0.00 | 99 | 1014.3 |
| 20260906091329 | 19 | 187 | 0.0 | 0.0 | 0.00 | 0.00 | 0.00 | 99 | 1014.5 |
| 20260906090825 | 18 | 191 | 0.0 | 0.0 | 0.00 | 0.00 | 0.00 | 99 | 1014.1 |
| 20260906090324 | 19 | 189 | 0.0 | 0.0 | 0.00 | 0.00 | 0.00 | 99 | 1014.2 |
| 20260906085819 | 19 | 154 | 0.0 | 0.0 | 0.00 | 0.00 | 0.00 | 99 | 1014.0 |
| 20260906085318 | 19 | 148 | 0.0 | 0.0 | 0.00 | 0.00 | 0.00 | 99 | 1013.9 |
| 20260906084812 | 19 | 182 | 1.6 | 1.6 | 0.00 | 0.00 | 0.00 | 99 | 1014.0 |
| 20260906084312 | 19 | 181 | 0.0 | 0.0 | 0.00 | 0.00 | 0.00 | 99 | 1014.1 |
| 20260906083807 | 20 | 181 | 0.0 | 0.0 | 0.00 | 0.00 | 0.00 | 99 | 1013.9 |
| 20260906083302 | 20 | 181 | 0.0 | 0.0 | 0.00 | 0.00 | 0.00 | 99 | 1013.6 |
| 20260906082757 | 20 | 179 | 0.0 | 0.0 | 0.00 | 0.00 | 0.00 | 99 | 1013.7 |
| 20260906082252 | 20 | 170 | 0.0 | 0.0 | 0.00 | 0.00 | 0.00 | 99 | 1014.0 |
| 20260906081748 | 20 | 154 | 0.0 | 1.6 | 0.00 | 0.00 | 0.00 | 99 | 1013.9 |
| 20260906081243 | 20 | 90 | 0.0 | 0.0 | 0.00 | 0.00 | 0.00 | 99 | 1013.7 |
| 20260906080740 | 20 | 184 | 0.0 | 0.0 | 0.00 | 0.00 | 0.00 | 99 | 1013.6 |
| 20260906080236 | 20 | 178 | 0.0 | 0.0 | 0.00 | 0.00 | 0.00 | 99 | 1014.0 |
| 20260906075730 | 20 | 168 | 0.0 | 0.0 | 0.00 | 0.00 | 0.00 | 99 | 1013.7 |
| 20260906075229 | 20 | 124 | 0.0 | 0.0 | 0.00 | 0.00 | 0.00 | 99 | 1013.6 |
| 20260906074725 | 20 | 91 | 0.0 | 0.0 | 0.00 | 0.00 | 0.00 | 99 | 1013.7 |
| 20260906074224 | 20 | 153 | 0.0 | 0.0 | 0.00 | 0.00 | 0.00 | 99 | 1013.6 |
| 20260906073724 | 20 | 99 | 0.0 | 1.6 | 0.00 | 0.00 | 0.00 | 99 | 1013.7 |
| 20260906073219 | 20 | 98 | 0.0 | 0.0 | 0.00 | 0.00 | 0.00 | 99 | 1013.7 |
| 20260906072715 | 20 | 186 | 0.0 | 0.0 | 0.00 | 0.00 | 0.00 | 99 | 1013.7 |
| 20260906072210 | 20 | 160 | 0.0 | 0.0 | 0.00 | 0.00 | 0.00 | 99 | 1014.1 |
| 20260906071706 | 20 | 98 | 0.0 | 0.0 | 0.00 | 0.00 | 0.00 | 99 | 1014.1 |
| 20260906071201 | 20 | 89 | 1.6 | 1.6 | 0.00 | 0.00 | 0.00 | 99 | 1014.0 |
| 20260906070658 | 20 | 107 | 0.0 | 0.0 | 0.00 | 0.00 | 0.00 | 99 | 1014.0 |
| 20260906070153 | 20 | 107 | 0.0 | 0.0 | 0.00 | 0.00 | 0.00 | 99 | 1014.1 |
| 20260906065652 | 20 | 172 | 0.0 | 0.0 | 0.00 | 0.00 | 0.00 | 99 | 1014.3 |
| 20260906065148 | 20 | 190 | 0.0 | 0.0 | 0.00 | 0.00 | 0.00 | 99 | 1014.3 |
| 20260906064643 | 20 | 222 | 0.0 | 0.0 | 0.00 | 0.00 | 0.00 | 99 | 1014.4 |
| 20260906064138 | 20 | 207 | 0.0 | 0.0 | 0.00 | 0.00 | 0.00 | 99 | 1014.3 |
| 20260906063633 | 20 | 179 | 0.0 | 0.0 | 0.00 | 0.00 | 0.00 | 99 | 1014.4 |
| 20260906063129 | 21 | 153 | 0.0 | 0.0 | 0.00 | 0.00 | 0.00 | 99 | 1014.4 |
| 20260906062625 | 21 | 159 | 0.0 | 0.0 | 0.00 | 0.00 | 0.00 | 99 | 1014.6 |
| 20260906062123 | 21 | 159 | 0.0 | 0.0 | 0.00 | 0.00 | 0.00 | 99 | 1014.4 |
| 20260906061620 | 21 | 176 | 0.0 | 0.0 | 0.00 | 0.00 | 0.00 | 99 | 1014.2 |
| 20260906061119 | 21 | 188 | 0.0 | 0.0 | 0.00 | 0.00 | 0.00 | 99 | 1014.0 |
| 20260906060616 | 21 | 165 | 3.2 | 3.2 | 0.00 | 0.00 | 0.00 | 99 | 1014.2 |
| 20260906060114 | 21 | 81 | 1.6 | 3.2 | 0.00 | 0.00 | 0.00 | 99 | 1014.2 |
| 20260906055609 | 21 | 82 | 0.0 | 0.0 | 0.00 | 0.00 | 0.00 | 99 | 1014.2 |
| 20260906055104 | 21 | 90 | 0.0 | 1.6 | 0.00 | 0.00 | 0.00 | 99 | 1014.1 |
| 20260906054604 | 21 | 187 | 0.0 | 0.0 | 0.00 | 0.00 | 0.00 | 99 | 1014.1 |
| 20260906054059 | 21 | 178 | 0.0 | 0.0 | 0.00 | 0.00 | 0.00 | 99 | 1013.9 |
| 20260906053555 | 21 | 178 | 1.6 | 1.6 | 0.00 | 0.00 | 0.00 | 99 | 1014.0 |
| 20260906053051 | 21 | 186 | 0.0 | 1.6 | 0.00 | 0.00 | 0.00 | 99 | 1013.9 |
| 20260906052546 | 21 | 192 | 0.0 | 0.0 | 0.00 | 0.00 | 0.00 | 99 | 1013.9 |
| 20260906052043 | 21 | 191 | 0.0 | 0.0 | 0.00 | 0.00 | 0.00 | 99 | 1013.7 |
| 20260906051538 | 21 | 219 | 0.0 | 0.0 | 0.00 | 0.00 | 0.00 | 99 | 1013.9 |
| 20260906051034 | 21 | 226 | 0.0 | 0.0 | 0.00 | 0.00 | 0.00 | 99 | 1014.0 |
| 20260906050529 | 22 | 127 | 0.0 | 0.0 | 0.00 | 0.00 | 0.00 | 99 | 1014.2 |
| 20260906050024 | 22 | 159 | 0.0 | 0.0 | 0.00 | 0.00 | 0.00 | 99 | 1014.1 |
| 20260906045522 | 22 | 99 | 0.0 | 0.0 | 0.00 | 0.00 | 0.00 | 99 | 1014.0 |
| 20260906045018 | 22 | 71 | 1.6 | 3.2 | 0.00 | 0.00 | 0.00 | 99 | 1014.1 |
| 20260906044513 | 22 | 73 | 1.6 | 3.2 | 0.00 | 0.00 | 0.00 | 99 | 1014.2 |
| 20260906044003 | 22 | 168 | 0.0 | 1.6 | 0.00 | 0.00 | 0.00 | 99 | 1014.0 |
| 20260906043458 | 22 | 93 | 0.0 | 0.0 | 0.00 | 0.00 | 0.00 | 99 | 1014.0 |
| 20260906042949 | 22 | 106 | 0.0 | 0.0 | 0.00 | 0.00 | 0.00 | 99 | 1014.2 |
| 20260906042448 | 22 | 118 | 0.0 | 0.0 | 0.00 | 0.00 | 0.00 | 99 | 1014.2 |
| 20260906041947 | 22 | 117 | 0.0 | 0.0 | 0.00 | 0.00 | 0.00 | 99 | 1014.0 |
| 20260906041444 | 22 | 149 | 0.0 | 0.0 | 0.00 | 0.00 | 0.00 | 99 | 1014.0 |
| 20260906040943 | 22 | 79 | 0.0 | 1.6 | 0.00 | 0.00 | 0.00 | 99 | 1013.7 |
| 20260906040438 | 22 | 113 | 0.0 | 0.0 | 0.00 | 0.00 | 0.00 | 99 | 1013.6 |
| 20260906035933 | 22 | 160 | 1.6 | 3.2 | 0.00 | 0.00 | 0.00 | 99 | 1013.9 |
| 20260906035429 | 22 | 142 | 1.6 | 1.6 | 0.00 | 0.00 | 0.00 | 99 | 1013.9 |
| 20260906034925 | 22 | 106 | 3.2 | 4.8 | 0.00 | 0.00 | 0.00 | 99 | 1013.9 |
| 20260906034425 | 22 | 169 | 0.0 | 0.0 | 0.00 | 0.00 | 0.00 | 99 | 1013.9 |
| 20260906033921 | 22 | 83 | 4.8 | 4.8 | 0.00 | 0.00 | 0.00 | 99 | 1013.7 |
| 20260906033420 | 22 | 93 | 1.6 | 3.2 | 0.00 | 0.00 | 0.00 | 99 | 1013.9 |
| 20260906032916 | 22 | 215 | 0.0 | 0.0 | 0.00 | 0.00 | 0.00 | 99 | 1013.7 |
| 20260906032412 | 22 | 326 | 0.0 | 0.0 | 0.00 | 0.00 | 0.00 | 99 | 1013.6 |
| 20260906031906 | 22 | 325 | 0.0 | 0.0 | 0.00 | 0.00 | 0.00 | 99 | 1013.9 |
| 20260906031402 | 22 | 325 | 0.0 | 0.0 | 0.00 | 0.00 | 0.00 | 99 | 1013.4 |
| 20260906030857 | 22 | 323 | 0.0 | 0.0 | 0.00 | 0.00 | 0.00 | 99 | 1013.4 |
| 20260906030352 | 22 | 322 | 0.0 | 0.0 | 0.00 | 0.00 | 0.00 | 99 | 1013.5 |
| 20260906025847 | 22 | 323 | 0.0 | 0.0 | 0.00 | 0.00 | 0.00 | 99 | 1013.4 |
| 20260906025341 | 22 | 323 | 0.0 | 0.0 | 0.00 | 0.00 | 0.00 | 99 | 1013.5 |
| 20260906024840 | 22 | 322 | 0.0 | 0.0 | 0.00 | 0.00 | 0.00 | 98 | 1013.3 |
| 20260906024339 | 22 | 322 | 0.0 | 0.0 | 0.00 | 0.00 | 0.00 | 98 | 1013.2 |
| 20260906023835 | 22 | 324 | 0.0 | 0.0 | 0.00 | 0.00 | 0.00 | 98 | 1013.2 |
| 20260906023331 | 22 | 342 | 0.0 | 0.0 | 0.00 | 0.00 | 0.00 | 98 | 1013.0 |
| 20260906022826 | 22 | 13 | 0.0 | 0.0 | 0.00 | 0.00 | 0.00 | 97 | 1013.0 |
| 20260906022321 | 22 | 13 | 0.0 | 0.0 | 0.00 | 0.00 | 0.00 | 97 | 1013.0 |
| 20260906021817 | 23 | 124 | 0.0 | 0.0 | 0.00 | 0.00 | 0.00 | 97 | 1012.8 |
| 20260906021315 | 23 | 123 | 0.0 | 0.0 | 0.00 | 0.00 | 0.00 | 97 | 1012.9 |
| 20260906020810 | 23 | 91 | 0.0 | 0.0 | 0.00 | 0.00 | 0.00 | 97 | 1012.7 |
| 20260906020310 | 23 | 98 | 0.0 | 0.0 | 0.00 | 0.00 | 0.00 | 97 | 1012.7 |
| 20260906015804 | 23 | 88 | 0.0 | 0.0 | 0.00 | 0.00 | 0.00 | 97 | 1012.7 |
| 20260906015305 | 23 | 89 | 0.0 | 1.6 | 0.00 | 0.00 | 0.00 | 97 | 1012.5 |
| 20260906014803 | 23 | 97 | 3.2 | 3.2 | 0.00 | 0.00 | 0.00 | 96 | 1012.5 |
| 20260906014258 | 23 | 164 | 0.0 | 0.0 | 0.00 | 0.00 | 0.00 | 96 | 1012.4 |
| 20260906013754 | 23 | 169 | 0.0 | 0.0 | 0.00 | 0.00 | 0.00 | 96 | 1012.3 |
| 20260906013249 | 23 | 169 | 0.0 | 0.0 | 0.00 | 0.00 | 0.00 | 96 | 1012.4 |
| 20260906012745 | 24 | 48 | 0.0 | 0.0 | 0.00 | 0.00 | 0.00 | 95 | 1012.4 |
| 20260906012240 | 24 | 38 | 1.6 | 1.6 | 0.00 | 0.00 | 0.00 | 95 | 1012.3 |
| 20260906011735 | 24 | 94 | 1.6 | 3.2 | 0.00 | 0.00 | 0.00 | 95 | 1012.2 |
| 20260906011234 | 25 | 108 | 4.8 | 4.8 | 0.00 | 0.00 | 0.00 | 94 | 1012.2 |
| 20260906010730 | 25 | 84 | 1.6 | 1.6 | 0.00 | 0.00 | 0.00 | 94 | 1012.3 |
| 20260906010226 | 25 | 112 | 0.0 | 0.0 | 0.00 | 0.00 | 0.00 | 93 | 1012.1 |
| 20260906005721 | 25 | 77 | 1.6 | 3.2 | 0.00 | 0.00 | 0.00 | 93 | 1012.0 |
| 20260906005220 | 25 | 55 | 4.8 | 4.8 | 0.00 | 0.00 | 0.00 | 93 | 1012.1 |
| 20260906004719 | 25 | 77 | 6.4 | 8.0 | 0.00 | 0.00 | 0.00 | 93 | 1012.1 |
| 20260906004214 | 26 | 95 | 3.2 | 3.2 | 0.00 | 0.00 | 0.00 | 92 | 1012.0 |
| 20260906003709 | 26 | 73 | 1.6 | 1.6 | 0.00 | 0.00 | 0.00 | 92 | 1011.9 |
| 20260906003205 | 26 | 56 | 3.2 | 3.2 | 0.00 | 0.00 | 0.00 | 92 | 1011.8 |
| 20260906002705 | 26 | 72 | 4.8 | 4.8 | 0.00 | 0.00 | 0.00 | 91 | 1012.0 |
| 20260906002200 | 26 | 99 | 4.8 | 8.0 | 0.00 | 0.00 | 0.00 | 91 | 1011.8 |
| 20260906001655 | 27 | 63 | 6.4 | 9.7 | 0.00 | 0.00 | 0.00 | 90 | 1011.6 |
| 20260906001149 | 27 | 76 | 8.0 | 9.7 | 0.00 | 0.00 | 0.00 | 90 | 1011.7 |
| 20260906000645 | 27 | 102 | 4.8 | 9.7 | 0.00 | 0.00 | 0.00 | 90 | 1011.6 |
| 20260906000141 | 27 | 98 | 4.8 | 9.7 | 0.00 | 0.00 | 0.00 | 89 | 1011.9 |
| 20260905235639 | 27 | 78 | 3.2 | 4.8 | 0.00 | 0.00 | 0.00 | 89 | 1011.9 |
| 20260905235135 | 27 | 81 | 4.8 | 8.0 | 0.00 | 0.00 | 0.00 | 88 | 1012.0 |
| 20260905234630 | 28 | 69 | 3.2 | 3.2 | 0.00 | 0.00 | 0.00 | 87 | 1011.9 |
| 20260905234126 | 28 | 13 | 6.4 | 8.0 | 0.00 | 0.00 | 0.00 | 86 | 1011.9 |
| 20260905233626 | 28 | 72 | 1.6 | 3.2 | 0.00 | 0.00 | 0.00 | 85 | 1011.8 |
| 20260905233119 | 29 | 33 | 3.2 | 3.2 | 0.00 | 0.00 | 0.00 | 83 | 1011.7 |
| 20260905232615 | 29 | 114 | 3.2 | 3.2 | 0.00 | 0.00 | 0.00 | 83 | 1011.7 |
| 20260905232111 | 29 | 105 | 1.6 | 3.2 | 0.00 | 0.00 | 0.00 | 83 | 1011.6 |
| 20260905231606 | 28 | 83 | 3.2 | 3.2 | 0.00 | 0.00 | 0.00 | 83 | 1011.6 |
| 20260905231102 | 29 | 68 | 1.6 | 3.2 | 0.00 | 0.00 | 0.00 | 84 | 1011.8 |
| 20260905230602 | 29 | 48 | 1.6 | 3.2 | 0.00 | 0.00 | 0.00 | 83 | 1011.8 |
| 20260905230101 | 29 | 78 | 1.6 | 1.6 | 0.00 | 0.00 | 0.00 | 82 | 1011.6 |
| 20260905225600 | 29 | 54 | 3.2 | 3.2 | 0.00 | 0.00 | 0.00 | 81 | 1011.5 |
| 20260905225055 | 30 | 93 | 3.2 | 3.2 | 0.00 | 0.00 | 0.00 | 81 | 1011.4 |
| 20260905224555 | 30 | 61 | 4.8 | 4.8 | 0.00 | 0.00 | 0.00 | 80 | 1011.4 |
| 20260905224055 | 30 | 115 | 4.8 | 8.0 | 0.00 | 0.00 | 0.00 | 80 | 1011.1 |
| 20260905223552 | 30 | 56 | 4.8 | 9.7 | 0.00 | 0.00 | 0.00 | 79 | 1011.0 |
| 20260905223048 | 30 | 87 | 4.8 | 4.8 | 0.00 | 0.00 | 0.00 | 79 | 1011.2 |
| 20260905222542 | 30 | 124 | 11.3 | 12.9 | 0.00 | 0.00 | 0.00 | 77 | 1011.0 |
| 20260905222037 | 30 | 109 | 3.2 | 4.8 | 0.00 | 0.00 | 0.00 | 78 | 1010.9 |
| 20260905221534 | 30 | 98 | 8.0 | 12.9 | 0.00 | 0.00 | 0.00 | 76 | 1010.8 |
| 20260905221030 | 31 | 203 | 1.6 | 3.2 | 0.00 | 0.00 | 0.00 | 76 | 1011.1 |
| 20260905220525 | 30 | 132 | 4.8 | 4.8 | 0.00 | 0.00 | 0.00 | 77 | 1011.0 |
| 20260905220021 | 31 | 81 | 8.0 | 12.9 | 0.00 | 0.00 | 0.00 | 76 | 1011.0 |
| 20260905215515 | 31 | 85 | 9.7 | 11.3 | 0.00 | 0.00 | 0.00 | 75 | 1011.0 |
| 20260905215011 | 31 | 68 | 6.4 | 8.0 | 0.00 | 0.00 | 0.00 | 77 | 1011.1 |
| 20260905214508 | 31 | 42 | 3.2 | 3.2 | 0.00 | 0.00 | 0.00 | 77 | 1011.0 |
| 20260905214007 | 31 | 66 | 8.0 | 9.7 | 0.00 | 0.00 | 0.00 | 76 | 1011.0 |
| 20260905213503 | 31 | 59 | 4.8 | 9.7 | 0.00 | 0.00 | 0.00 | 76 | 1011.2 |
| 20260905213004 | 31 | 64 | 6.4 | 8.0 | 0.00 | 0.00 | 0.00 | 76 | 1010.9 |
| 20260905212459 | 31 | 98 | 8.0 | 11.3 | 0.00 | 0.00 | 0.00 | 75 | 1010.9 |
| 20260905211957 | 31 | 68 | 4.8 | 4.8 | 0.00 | 0.00 | 0.00 | 76 | 1011.0 |
| 20260905211453 | 31 | 58 | 8.0 | 11.3 | 0.00 | 0.00 | 0.00 | 74 | 1011.0 |
| 20260905210949 | 31 | 112 | 11.3 | 12.9 | 0.00 | 0.00 | 0.00 | 75 | 1011.1 |
| 20260905210444 | 31 | 82 | 8.0 | 9.7 | 0.00 | 0.00 | 0.00 | 76 | 1011.0 |
| 20260905205944 | 31 | 40 | 6.4 | 9.7 | 0.00 | 0.00 | 0.00 | 76 | 1011.2 |
| 20260905205438 | 31 | 22 | 6.4 | 8.0 | 0.00 | 0.00 | 0.00 | 77 | 1011.3 |
| 20260905204937 | 31 | 86 | 3.2 | 3.2 | 0.00 | 0.00 | 0.00 | 78 | 1011.5 |
| 20260905204433 | 31 | 30 | 9.7 | 11.3 | 0.00 | 0.00 | 0.00 | 78 | 1011.5 |
| 20260905203932 | 31 | 47 | 4.8 | 9.7 | 0.00 | 0.00 | 0.00 | 78 | 1011.3 |
| 20260905203428 | 31 | 47 | 6.4 | 9.7 | 0.00 | 0.00 | 0.00 | 79 | 1011.5 |
| 20260905202923 | 31 | 62 | 9.7 | 12.9 | 0.00 | 0.00 | 0.00 | 77 | 1011.6 |
| 20260905202419 | 31 | 45 | 8.0 | 11.3 | 0.00 | 0.00 | 0.00 | 78 | 1011.4 |
| 20260905201914 | 32 | 12 | 9.7 | 12.9 | 0.00 | 0.00 | 0.00 | 75 | 1011.4 |
| 20260905201409 | 32 | 48 | 6.4 | 8.0 | 0.00 | 0.00 | 0.00 | 75 | 1011.5 |
| 20260905200909 | 31 | 27 | 9.7 | 12.9 | 0.00 | 0.00 | 0.00 | 75 | 1011.8 |
| 20260905200405 | 31 | 35 | 4.8 | 4.8 | 0.00 | 0.00 | 0.00 | 78 | 1011.8 |
| 20260905195903 | 31 | 357 | 4.8 | 4.8 | 0.00 | 0.00 | 0.00 | 75 | 1011.9 |
| 20260905195358 | 31 | 40 | 4.8 | 8.0 | 0.00 | 0.00 | 0.00 | 75 | 1012.0 |
| 20260905194854 | 31 | 50 | 4.8 | 8.0 | 0.00 | 0.00 | 0.00 | 74 | 1011.9 |
| 20260905194353 | 31 | 36 | 1.6 | 1.6 | 0.00 | 0.00 | 0.00 | 78 | 1012.0 |
| 20260905193853 | 31 | 54 | 4.8 | 4.8 | 0.00 | 0.00 | 0.00 | 76 | 1012.2 |
| 20260905193348 | 32 | 23 | 3.2 | 3.2 | 0.00 | 0.00 | 0.00 | 76 | 1012.2 |
| 20260905192844 | 31 | 4 | 4.8 | 4.8 | 0.00 | 0.00 | 0.00 | 77 | 1012.4 |
| 20260905192339 | 32 | 51 | 9.7 | 12.9 | 0.00 | 0.00 | 0.00 | 74 | 1012.2 |
| 20260905191839 | 32 | 44 | 4.8 | 4.8 | 0.00 | 0.00 | 0.00 | 76 | 1012.3 |
| 20260905191338 | 31 | 20 | 6.4 | 8.0 | 0.00 | 0.00 | 0.00 | 75 | 1012.3 |
| 20260905190837 | 31 | 20 | 6.4 | 8.0 | 0.00 | 0.00 | 0.00 | 78 | 1012.4 |
| 20260905190330 | 31 | 98 | 4.8 | 4.8 | 0.00 | 0.00 | 0.00 | 78 | 1012.5 |
| 20260905185829 | 31 | 4 | 6.4 | 8.0 | 0.00 | 0.00 | 0.00 | 76 | 1012.5 |
| 20260905185319 | 31 | 77 | 3.2 | 3.2 | 0.00 | 0.00 | 0.00 | 78 | 1012.8 |
| 20260905184818 | 31 | 41 | 6.4 | 8.0 | 0.00 | 0.00 | 0.00 | 79 | 1012.7 |
| 20260905184317 | 31 | 86 | 4.8 | 4.8 | 0.00 | 0.00 | 0.00 | 77 | 1012.9 |
| 20260905183815 | 31 | 4 | 6.4 | 8.0 | 0.00 | 0.00 | 0.00 | 78 | 1012.7 |
| 20260905183311 | 30 | 87 | 4.8 | 4.8 | 0.00 | 0.00 | 0.00 | 80 | 1012.6 |
| 20260905182806 | 30 | 12 | 4.8 | 4.8 | 0.00 | 0.00 | 0.00 | 81 | 1012.9 |
| 20260905182306 | 30 | 23 | 6.4 | 8.0 | 0.00 | 0.00 | 0.00 | 81 | 1013.0 |
| 20260905181801 | 30 | 56 | 4.8 | 4.8 | 0.00 | 0.00 | 0.00 | 81 | 1012.8 |
| 20260905181301 | 30 | 41 | 4.8 | 4.8 | 0.00 | 0.00 | 0.00 | 83 | 1013.1 |
| 20260905180800 | 30 | 95 | 4.8 | 8.0 | 0.00 | 0.00 | 0.00 | 81 | 1013.0 |
| 20260905180255 | 30 | 68 | 3.2 | 4.8 | 0.00 | 0.00 | 0.00 | 80 | 1013.0 |
| 20260905175750 | 30 | 59 | 6.4 | 8.0 | 0.00 | 0.00 | 0.00 | 81 | 1013.0 |
| 20260905175245 | 30 | 33 | 1.6 | 1.6 | 0.00 | 0.00 | 0.00 | 81 | 1013.0 |
| 20260905174740 | 30 | 23 | 6.4 | 8.0 | 0.00 | 0.00 | 0.00 | 80 | 1012.8 |
| 20260905174235 | 30 | 65 | 3.2 | 4.8 | 0.00 | 0.00 | 0.00 | 82 | 1012.8 |
| 20260905173726 | 30 | 88 | 9.7 | 11.3 | 0.00 | 0.00 | 0.00 | 80 | 1012.8 |
| 20260905173221 | 30 | 28 | 4.8 | 4.8 | 0.00 | 0.00 | 0.00 | 81 | 1013.2 |
| 20260905172721 | 30 | 36 | 4.8 | 4.8 | 0.00 | 0.00 | 0.00 | 80 | 1012.9 |
| 20260905172215 | 29 | 32 | 4.8 | 4.8 | 0.00 | 0.00 | 0.00 | 81 | 1012.8 |
| 20260905171711 | 30 | 76 | 4.8 | 8.0 | 0.00 | 0.00 | 0.00 | 81 | 1012.8 |
| 20260905171207 | 29 | 69 | 3.2 | 4.8 | 0.00 | 0.00 | 0.00 | 81 | 1012.8 |
| 20260905170704 | 29 | 43 | 6.4 | 8.0 | 0.00 | 0.00 | 0.00 | 80 | 1012.8 |
| 20260905170203 | 30 | 70 | 4.8 | 8.0 | 0.00 | 0.00 | 0.00 | 80 | 1012.7 |
| 20260905165658 | 29 | 64 | 1.6 | 1.6 | 0.00 | 0.00 | 0.00 | 82 | 1012.9 |
| 20260905165153 | 29 | 79 | 4.8 | 4.8 | 0.00 | 0.00 | 0.00 | 81 | 1012.9 |
| 20260905164648 | 29 | 104 | 4.8 | 8.0 | 0.00 | 0.00 | 0.00 | 82 | 1012.9 |
| 20260905164147 | 29 | 50 | 11.3 | 12.9 | 0.00 | 0.00 | 0.00 | 81 | 1013.0 |
| 20260905163643 | 29 | 62 | 6.4 | 8.0 | 0.00 | 0.00 | 0.00 | 82 | 1012.9 |
| 20260905163140 | 29 | 51 | 1.6 | 1.6 | 0.00 | 0.00 | 0.00 | 84 | 1013.0 |
| 20260905162636 | 29 | 32 | 3.2 | 4.8 | 0.00 | 0.00 | 0.00 | 82 | 1013.2 |
| 20260905162135 | 29 | 28 | 4.8 | 4.8 | 0.00 | 0.00 | 0.00 | 85 | 1013.1 |
| 20260905161634 | 29 | 46 | 4.8 | 4.8 | 0.00 | 0.00 | 0.00 | 83 | 1013.1 |
| 20260905161132 | 28 | 75 | 1.6 | 3.2 | 0.00 | 0.00 | 0.00 | 84 | 1013.1 |
| 20260905160626 | 28 | 5 | 3.2 | 4.8 | 0.00 | 0.00 | 0.00 | 84 | 1012.9 |
| 20260905160120 | 28 | 21 | 3.2 | 3.2 | 0.00 | 0.00 | 0.00 | 86 | 1012.9 |
| 20260905155615 | 28 | 76 | 3.2 | 3.2 | 0.00 | 0.00 | 0.00 | 84 | 1012.9 |
| 20260905155114 | 28 | 58 | 4.8 | 8.0 | 0.00 | 0.00 | 0.00 | 85 | 1013.0 |
| 20260905154608 | 28 | 22 | 4.8 | 4.8 | 0.00 | 0.00 | 0.00 | 85 | 1012.9 |
| 20260905154104 | 28 | 89 | 4.8 | 4.8 | 0.00 | 0.00 | 0.00 | 84 | 1012.9 |
| 20260905153600 | 28 | 88 | 4.8 | 8.0 | 0.00 | 0.00 | 0.00 | 83 | 1012.8 |
| 20260905153100 | 28 | 78 | 1.6 | 1.6 | 0.00 | 0.00 | 0.00 | 85 | 1012.8 |
| 20260905152555 | 28 | 344 | 6.4 | 8.0 | 0.00 | 0.00 | 0.00 | 85 | 1012.8 |
| 20260905152049 | 28 | 358 | 6.4 | 8.0 | 0.00 | 0.00 | 0.00 | 84 | 1012.6 |
| 20260905151545 | 28 | 81 | 3.2 | 4.8 | 0.00 | 0.00 | 0.00 | 85 | 1012.5 |
| 20260905151040 | 28 | 60 | 3.2 | 3.2 | 0.00 | 0.00 | 0.00 | 85 | 1012.5 |
| 20260905150535 | 28 | 45 | 3.2 | 3.2 | 0.00 | 0.00 | 0.00 | 87 | 1012.3 |
| 20260905150033 | 28 | 39 | 3.2 | 3.2 | 0.00 | 0.00 | 0.00 | 88 | 1012.3 |
| 20260905145526 | 27 | 33 | 3.2 | 3.2 | 0.00 | 0.00 | 0.00 | 89 | 1012.1 |
| 20260905145021 | 27 | 343 | 4.8 | 4.8 | 0.00 | 0.00 | 0.00 | 90 | 1012.2 |
| 20260905144516 | 27 | 26 | 3.2 | 4.8 | 0.00 | 0.00 | 0.00 | 91 | 1012.1 |
| 20260905144015 | 27 | 16 | 4.8 | 8.0 | 0.00 | 0.00 | 0.00 | 91 | 1012.3 |
| 20260905143514 | 26 | 35 | 3.2 | 4.8 | 0.00 | 0.00 | 0.00 | 93 | 1012.2 |
| 20260905143009 | 26 | 17 | 6.4 | 8.0 | 0.00 | 0.00 | 0.00 | 94 | 1012.1 |
| 20260905142508 | 26 | 356 | 3.2 | 3.2 | 0.00 | 0.00 | 0.00 | 96 | 1012.2 |
| 20260905142003 | 25 | 12 | 4.8 | 8.0 | 0.00 | 0.00 | 0.00 | 96 | 1012.2 |
| 20260905141503 | 25 | 22 | 4.8 | 4.8 | 0.00 | 0.00 | 0.00 | 96 | 1012.1 |
| 20260905141000 | 25 | 25 | 3.2 | 3.2 | 0.00 | 0.00 | 0.00 | 97 | 1012.1 |
| 20260905140454 | 25 | 0 | 1.6 | 1.6 | 0.00 | 0.00 | 0.00 | 98 | 1012.0 |
| 20260905135953 | 25 | 357 | 1.6 | 1.6 | 0.00 | 0.00 | 0.00 | 98 | 1012.0 |
| 20260905135449 | 25 | 338 | 0.0 | 0.0 | 0.00 | 0.00 | 0.00 | 99 | 1011.9 |
| 20260905134944 | 24 | 313 | 1.6 | 3.2 | 0.00 | 0.00 | 0.00 | 99 | 1012.0 |
| 20260905134443 | 24 | 40 | 1.6 | 3.2 | 0.00 | 0.00 | 0.00 | 99 | 1012.1 |
| 20260905133943 | 24 | 349 | 3.2 | 3.2 | 0.00 | 0.00 | 0.00 | 99 | 1012.0 |
| 20260905133437 | 23 | 340 | 1.6 | 3.2 | 0.00 | 0.00 | 0.00 | 99 | 1012.1 |
| 20260905132932 | 23 | 357 | 4.8 | 4.8 | 0.00 | 0.00 | 0.00 | 99 | 1012.0 |
| 20260905132427 | 23 | 16 | 3.2 | 3.2 | 0.00 | 0.00 | 0.00 | 99 | 1011.8 |
| 20260905131922 | 23 | 350 | 0.0 | 0.0 | 0.00 | 0.00 | 0.00 | 99 | 1011.5 |
| 20260905131418 | 23 | 326 | 0.0 | 1.6 | 0.00 | 0.00 | 0.00 | 99 | 1011.6 |
| 20260905130912 | 23 | 320 | 0.0 | 0.0 | 0.00 | 0.00 | 0.00 | 99 | 1011.3 |
| 20260905130412 | 22 | 18 | 0.0 | 1.6 | 0.00 | 0.00 | 0.00 | 99 | 1011.4 |
| 20260905125906 | 22 | 292 | 0.0 | 0.0 | 0.00 | 0.00 | 0.00 | 99 | 1011.2 |
| 20260905125407 | 22 | 305 | 1.6 | 1.6 | 0.00 | 0.00 | 0.00 | 99 | 1011.3 |
| 20260905124902 | 22 | 324 | 1.6 | 1.6 | 0.00 | 0.00 | 0.00 | 99 | 1011.3 |
| 20260905124359 | 22 | 344 | 1.6 | 1.6 | 0.00 | 0.00 | 0.00 | 99 | 1011.4 |
| 20260905123858 | 22 | 324 | 1.6 | 1.6 | 0.00 | 0.00 | 0.00 | 99 | 1011.5 |
| 20260905123355 | 22 | 331 | 3.2 | 3.2 | 0.00 | 0.00 | 0.00 | 99 | 1011.4 |
| 20260905122850 | 21 | 320 | 4.8 | 4.8 | 0.00 | 0.00 | 0.00 | 99 | 1011.3 |
| 20260905122349 | 21 | 341 | 0.0 | 0.0 | 0.00 | 0.00 | 0.00 | 99 | 1011.1 |
| 20260905121844 | 22 | 327 | 0.0 | 0.0 | 0.00 | 0.00 | 0.00 | 99 | 1011.0 |
| 20260905121341 | 22 | 307 | 0.0 | 0.0 | 0.00 | 0.00 | 0.00 | 99 | 1011.0 |
| 20260905120839 | 21 | 292 | 0.0 | 0.0 | 0.00 | 0.00 | 0.00 | 99 | 1010.8 |
| 20260905120334 | 21 | 284 | 0.0 | 0.0 | 0.00 | 0.00 | 0.00 | 99 | 1010.7 |
| 20260905115830 | 21 | 284 | 0.0 | 0.0 | 0.00 | 0.00 | 0.00 | 99 | 1010.8 |
| 20260905115329 | 21 | 283 | 0.0 | 0.0 | 0.00 | 0.00 | 0.00 | 99 | 1010.7 |
| 20260905114829 | 21 | 286 | 0.0 | 0.0 | 0.00 | 0.00 | 0.00 | 99 | 1010.7 |
| 20260905114328 | 21 | 294 | 0.0 | 0.0 | 0.00 | 0.00 | 0.00 | 99 | 1010.7 |
| 20260905113822 | 20 | 308 | 0.0 | 0.0 | 0.00 | 0.00 | 0.00 | 99 | 1010.7 |
| 20260905113318 | 21 | 313 | 0.0 | 0.0 | 0.00 | 0.00 | 0.00 | 99 | 1010.5 |
| 20260905112813 | 20 | 257 | 0.0 | 0.0 | 0.00 | 0.00 | 0.00 | 99 | 1010.4 |
| 20260905112308 | 20 | 252 | 0.0 | 0.0 | 0.00 | 0.00 | 0.00 | 99 | 1010.6 |
| 20260905111803 | 20 | 252 | 0.0 | 0.0 | 0.00 | 0.00 | 0.00 | 99 | 1010.3 |
| 20260905111257 | 20 | 251 | 0.0 | 0.0 | 0.00 | 0.00 | 0.00 | 99 | 1010.3 |
| 20260905110756 | 20 | 337 | 0.0 | 0.0 | 0.00 | 0.00 | 0.00 | 99 | 1010.5 |
| 20260905110255 | 20 | 337 | 0.0 | 0.0 | 0.00 | 0.00 | 0.00 | 99 | 1010.6 |
| 20260905105752 | 20 | 338 | 0.0 | 0.0 | 0.00 | 0.00 | 0.00 | 99 | 1010.6 |
| 20260905105250 | 20 | 338 | 0.0 | 0.0 | 0.00 | 0.00 | 0.00 | 99 | 1010.8 |
| 20260905104746 | 20 | 314 | 0.0 | 0.0 | 0.00 | 0.00 | 0.00 | 99 | 1010.6 |
| 20260905104242 | 20 | 294 | 0.0 | 0.0 | 0.00 | 0.00 | 0.00 | 99 | 1010.6 |
| 20260905103741 | 21 | 294 | 0.0 | 0.0 | 0.00 | 0.00 | 0.00 | 99 | 1010.6 |